Location: Breitenfeld
(46.8500°N, 15.6333°E)
Time: 08:31:02
(UTC+00:00)

STARLINK-1239 - Pass Details

Date: 09 April 2020
Orbit: 549 x 551 km, 53.0° (Epoch: 26 May)

Event Time Altitude Azimuth Distance (km) Brightness Sun altitude
Rises 20:04:37 0° 298° (WNW) 2,731 8.5 -22.9°
Reaches altitude 10° 20:06:52 10° 295° (WNW) 1,835 7.3 -23.2°
Enters shadow 20:10:39 57° 240° (WSW) 653 3.9 -23.7°
